Lid_Strength_Index
1 3 4 6 11 12 15 13 12 12 12 9 10 10 10 10 9 12 5 2 1 1 0 0 -1 -2 -1 -1 -2 -1 -1 -1 -1 -1 -1 -1 -1 -1 -1 -1 -1 -1 -1 -2 -2 -1 -1 -1 -1
4 4 6 9 13 16 16 12 12 11 11 10 10 10 10 10 8 6 5 2 1 0 0 1 -1 -2 -2 -2 -1 -1 -1 -1 -1 -1 -1 -1 -1 -2 -1 -1 -1 -1 -1 -1 -1 -1 -1 -1 -1
4 5 8 11 15 17 15 13 12 12 11 11 10 9 9 10 8 6 4 2 2 1 1 1 -1 -1 -1 -2 -1 -2 -2 -1 -1 -1 -1 -2 -1 -1 -1 -1 -1 -1 -1 -2 -2 -1 -0 -1 -1
6 8 10 12 14 12 12 11 12 12 10 11 9 10 10 8 7 6 4 2 3 3 2 -0 -1 -1 -1 -1 -1 -1 -2 -1 -2 -2 -1 -1 -2 -2 -2 -2 -2 -2 -2 -1 -0 0 0 0 1
8 10 14 15 15 13 12 11 12 12 12 12 11 11 11 9 8 6 2 2 2 4 3 1 -1 -1 -1 -1 -1 -2 -2 -2 -2 -1 -1 -2 -2 -1 -1 -1 -1 -1 -0 0 1 1 1 1 1
10 11 14 16 15 12 11 11 11 12 12 12 11 11 10 10 8 6 3 3 3 3 3 2 0 -1 -1 -1 -1 -2 -2 -2 -1 -1 -2 -2 -1 -1 -0 -0 0 0 0 1 1 1 1 2 2
11 12 14 15 14 13 11 12 11 12 12 11 10 11 10 10 8 6 5 5 4 3 3 3 1 -0 -0 -0 -1 -1 -2 -1 -2 -2 -1 -0 -0 0 1 1 1 1 1 1 2 2 2 3 3
10 11 15 15 15 13 11 12 12 11 11 11 10 11 11 10 8 6 6 6 5 5 4 3 4 2 2 2 -0 -1 -1 -2 -2 -1 -0 0 0 1 1 1 1 1 1 2 3 3 4 4 5
11 14 15 14 14 12 11 12 11 10 11 11 10 10 11 10 8 7 8 8 7 6 5 5 5 4 4 4 2 0 -0 -1 -0 0 1 3 7 6 6 4 1 2 3 3 4 5 5 6 6
11 15 14 13 12 12 12 11 11 10 11 12 11 10 10 11 9 8 8 7 8 7 6 6 6 5 5 4 4 4 3 4 5 6 7 9 9 9 7 4 2 3 3 4 5 6 8 11 13
11 13 12 11 10 10 11 12 11 12 11 11 10 9 10 11 10 8 8 7 6 6 6 6 7 7 7 6 6 6 7 7 8 8 10 11 11 9 10 10 11 11 10 12 12 13 14 14 14
12 10 10 10 10 11 11 11 11 11 8 9 9 9 10 11 11 9 8 8 8 8 7 7 7 7 8 7 7 7 8 9 9 10 11 12 12 12 12 13 14 14 14 15 15 15 15 14 14
12 11 10 10 10 10 10 10 11 11 8 9 9 10 10 10 10 10 9 9 9 8 7 7 7 7 8 8 8 9 9 9 10 11 12 12 12 13 14 14 15 15 15 15 16 15 15 15 15
12 12 11 11 10 10 10 9 12 10 9 10 10 10 11 11 10 11 11 10 11 9 8 8 8 7 8 8 8 8 9 10 11 12 11 12 12 13 14 14 15 15 16 16 16 16 16 16 15
13 13 13 13 11 11 11 12 13 9 11 10 11 11 10 11 11 10 9 9 9 10 9 9 8 8 8 8 9 9 9 10 11 11 12 13 13 14 14 14 15 15 16 16 16 16 16 16 16
16 15 17 14 13 13 12 15 10 11 12 11 11 11 11 11 10 10 9 9 9 9 11 10 8 9 9 9 10 10 10 10 11 12 12 12 13 14 14 14 15 15 16 16 16 17 17 17 17
18 19 18 16 13 13 14 16 12 12 13 12 12 11 11 10 10 10 9 9 9 9 10 11 10 10 9 9 10 11 11 11 11 12 12 13 13 14 14 14 15 15 16 17 17 17 18 18 18
18 19 18 18 15 16 16 15 13 11 14 12 11 11 11 10 9 7 9 10 9 10 9 10 11 10 10 10 11 13 13 12 13 13 13 13 13 15 15 15 16 16 17 17 17 18 18 18 18
18 18 18 16 14 16 15 15 14 12 12 12 12 11 11 11 9 8 10 11 11 11 11 11 12 11 11 11 12 12 12 12 13 13 13 14 14 15 15 16 16 17 17 17 18 18 18 18 19
16 17 17 15 14 16 16 16 14 13 13 12 11 11 10 10 10 9 11 11 11 11 11 11 11 11 11 11 11 11 11 12 12 13 14 14 15 15 15 16 16 17 18 18 18 18 19 18 19
17 18 17 17 16 17 18 17 16 14 14 12 11 11 11 11 11 10 11 13 13 12 12 11 11 12 11 11 11 15 15 16 15 15 14 14 15 15 15 16 16 17 17 17 18 18 18 19 19
16 15 15 17 19 20 17 21 17 13 13 14 13 13 13 13 12 12 12 13 13 12 12 12 12 12 12 12 12 13 13 13 13 13 13 14 15 15 16 16 16 17 17 18 18 18 19 19 19
16 15 16 18 19 20 20 21 19 17 17 15 14 13 13 13 13 12 12 12 12 12 13 13 13 13 13 12 12 13 12 12 14 14 14 15 16 16 16 16 17 17 17 18 18 18 19 19 19
15 17 17 19 19 22 19 19 19 18 16 15 14 13 13 13 13 13 13 13 13 14 14 14 14 13 13 13 13 13 13 14 16 16 15 15 16 16 16 16 17 17 17 18 18 18 18 19 19
17 18 21 22 23 21 19 20 16 16 14 14 13 13 13 14 13 13 13 12 14 14 15 15 15 15 14 14 13 13 13 15 15 15 15 16 16 16 17 16 17 17 17 17 18 18 18 18 19
17 17 20 23 24 19 20 21 17 14 13 14 15 13 14 14 14 13 13 13 14 14 15 15 16 16 15 15 14 14 14 15 14 15 15 15 15 15 15 16 16 17 17 18 18 18 18 19 18
18 18 16 18 23 23 18 16 15 15 16 16 15 14 14 14 13 13 12 13 13 14 15 15 15 15 15 15 15 15 15 15 15 16 16 15 15 15 16 16 17 17 17 18 18 18 18 19 18
15 15 18 18 21 23 19 19 17 15 13 12 14 15 14 13 13 12 13 12 12 14 15 15 15 15 15 15 14 14 14 14 15 17 16 15 15 15 17 16 16 17 18 18 18 19 19 19 19
17 16 16 16 16 19 20 17 12 14 15 14 15 12 12 11 11 12 12 12 12 12 13 15 15 15 15 15 15 15 15 15 16 16 15 15 15 16 16 16 16 17 17 18 18 19 19 19 20
13 13 13 16 17 16 15 15 11 10 10 11 11 12 13 13 13 13 13 13 14 14 13 13 13 15 14 14 15 16 16 16 16 15 15 15 15 16 16 16 17 17 17 18 18 19 19 20 20